www.pogodaiklimat.ru

Погода и климат >> Архив погоды >> Франция >> Сен-Жирон


ПОГОДА в Сен-Жироне

  • Прогноз погоды в Сен-Жироне
  • Монитор погоды в Сен-Жироне

АРХИВ ПОГОДЫ в Сен-Жироне

Время (UTC), дата Ветер
(напр.,м/с)
 
Видим.   Явления Облачность Т
(С)
Тd
(С)
f
(%)
Тe
(С)
Тes
(С)
Комфортность P
(гПа)
Po
(гПа)
Тmin
(С)
Tmax
(С)
R
(мм)
R24
(мм)
S
(см)
10 17.06 С 1 4100 м дымка н/о +24.9 +13.1 48 +27 +27 жарко 1015.9 969.2
11 17.06 В 1 18 км н/о +26.1 +13.9 47 +28 +28 жарко 1015.5 969.0
12 17.06 С 2
{4}
20 км н/о +26.8 +14.5 47 +29 +29 жарко 1014.8 968.5 0
13 17.06 С 1 20 км н/о +27.8 +14.1 43 +30 +30 жарко 1014.2 968.0
14 17.06 С 1 20 км н/о +27.9 +12.7 39 +29 +29 жарко 1013.6 967.5
15 17.06 В 2
{5}
20 км н/о +28.2 +11.3 35 +29 +29 жарко 1013.2 967.1 0
16 17.06 В 3
{5}
20 км н/о +28.2 +8.5 29 +28 +28 жарко 1012.6 966.5
17 17.06 СВ 1 20 км н/о +27.7 +9.5 32 +28 +28 жарко 1012.4 966.2
18 17.06 СВ 1
{5}
20 км н/о +27.5 +9.8 33 +28 +28 жарко 1012.6 966.4 +15.1 +28.5 0
19 17.06 ЮЗ 1 20 км н/о +22.2 +13.0 56 +25 +25 комфорт 1013.4 966.4
20 17.06 штиль 0 20 км н/о +18.9 +11.9 64 +20 +20 1014.1 966.5
21 17.06 ЮВ 1
{3}
20 км н/о +17.9 +11.7 67 +19 +19 1014.6 966.9 0
22 17.06 ЮВ 2 20 км н/о +18.7 +11.0 61 +20 +20 1014.3 966.7
23 17.06 ЮВ 2 20 км 10/10
[]
+18.5 +10.8 61 +20 +20 1013.8 966.2
00 18.06 ЮВ 3
{6}
20 км н/о +18.6 +10.2 58 +19 +19 1013.3 965.7 0
01 18.06 Ю 2 20 км 9/9
[]
+16.6 +9.8 64 +17 +17 1013.2 965.3
02 18.06 штиль 0 20 км 9/9
[]
+14.3 +10.3 77 +14 +14 1013.3 965.0
03 18.06 ЮВ 2
{3}
20 км 8/0
[]
+14.2 +10.2 77 +14 +14 1012.9 964.6 0
04 18.06 ЮВ 2 20 км 10/10
[]
+18.1 +9.2 56 +19 +19 1012.1 964.5
05 18.06 ЮВ 2 19 км 9/9
[]
+19.3 +8.9 51 +21 +21 комфорт 1011.7 964.3
06 18.06 В 2
{5}
12 км 8/0
[]
+18.5 +11.3 63 +20 +21 1011.9 964.4 +13.3 +27.5
07 18.06 ЮВ 1 19 км н/о +23.4 +12.4 50 +26 +26 жарко 1010.9 964.2
08 18.06 З 1 20 км н/о +22.2 +13.3 57 +25 +25 комфорт 1011.4 964.5
09 18.06 З 1
{3}
18 км 8/0
[]
+24.1 +14.5 55 +27 +36 жарко 1011.0 964.4 0
10 18.06 СВ 1 19 км н/о +26.6 +16.5 54 +30 +30 душно 1010.2 964.1
11 18.06 СВ 1 20 км н/о +30.4 +14.9 39 +33 +33 душно 1009.1 963.6
12 18.06 В 2
{5}
20 км н/о +31.5 +15.5 38 +34 +34 душно 1008.3 963.0 0
13 18.06 В 1 20 км н/о +32.0 +17.1 41 +36 +36 очень
душно
1007.8 962.6
14 18.06 В 2 20 км н/о +30.8 +15.6 40 +33 +33 душно 1007.8 962.4
15 18.06 В 4
{8}
20 км н/о +30.9 +16.5 42 +34 +34 душно 1007.3 962.0 0
16 18.06 В 2 20 км н/о +30.3 +17.4 46 +34 +34 очень
душно
1007.1 961.7
17 18.06 В 2 20 км н/о +30.3 +15.6 41 +33 +33 душно 1006.8 961.4
18 18.06 В 2
{5}
20 км н/о +29.4 +17.2 48 +33 +33 душно 1007.0 961.5 +18.7 +32.3 0
19 18.06 ЮВ 1 20 км н/о +26.5 +17.6 58 +31 +31 душно 1007.4 961.4
20 18.06 ЮВ 1 19 км н/о +23.5 +16.3 64 +27 +27 душно 1008.0 961.5
21 18.06 ЮВ 2
{4}
20 км н/о +21.8 +13.4 59 +25 +25 комфорт 1008.7 961.9 0
22 18.06 Ю 2 20 км н/о +24.3 +10.2 41 +25 +25 комфорт 1008.4 961.9
23 18.06 ЮВ 2 20 км н/о +21.2 +9.7 48 +23 +23 комфорт 1009.0 962.0
00 19.06 ЮВ 4
{7}
20 км н/о +20.1 +9.0 49 +21 +21 комфорт 1008.7 961.5 0
01 19.06 З 3 20 км н/о +18.4 +14.7 79 +19 +19 1010.5 963.1
02 19.06 СЗ 3 19 км н/о +17.6 +13.9 79 +18 +18 1012.1 964.5
03 19.06 Ю 2
{8}
14 км н/о +14.4 +11.9 85 +14 +14 1013.3 965.1 0
04 19.06 ЮВ 2 16 км н/о +15.0 +13.2 89 +15 +15 1013.4 965.3
05 19.06 З 1 11 км н/о +13.5 +12.2 92 +14 +14 1014.0 965.6
06 19.06 СЗ 1
{2}
19 км н/о +16.5 +13.4 82 +17 +17 1013.4 965.5 +13.4 +29.4 0
07 19.06 штиль 0
{2}
20 км н/о +20.0 +13.5 66 +22 +22 комфорт 1012.9 965.6
08 19.06 ЮВ 1 20 км н/о +23.7 +12.7 50 +26 +26 жарко 1012.2 965.5
09 19.06 С 2
{3}
н/о н/о +25.8 +12.6 44 +28 +28 жарко 1011.6 965.2 0
10 19.06 С 1 18 км н/о +26.5 +12.2 41 +28 +28 жарко 1011.6 965.3
11 19.06 СЗ 1 20 км н/о +25.6 +10.6 39 +27 +27 жарко 1011.6 965.2
12 19.06 СЗ 4
{5}
19 км н/о +26.5 +12.5 42 +28 +28 жарко 1011.7 965.4 0
13 19.06 С 2 20 км н/о +26.8 +13.2 43 +29 +29 жарко 1011.7 965.5
14 19.06 С 2 20 км 8/8 1500 м
[]
+25.5 +12.7 45 +27 +31 жарко 1011.9 965.5
15 19.06 С 2
{5}
19 км 8/8 1500 м
[]
+26.8 +13.5 44 +29 +31 жарко 1011.7 965.5 0
16 19.06 СЗ 1 19 км 9/9 1500 м
[]
+25.2 +13.7 49 +27 +28 жарко 1011.8 965.4
17 19.06 СЗ 2 20 км н/о +24.2 +14.6 55 +27 +27 жарко 1012.1 965.5
18 19.06 З 2
{5}
20 км 10/10 1500 м
[]
+23.0 +15.1 61 +27 +27 душно 1012.8 966.0 +16.5 +27.2 0
19 19.06 СЗ 1 20 км 10/10 1500 м
[]
+22.1 +14.5 62 +25 +25 комфорт 1013.5 966.5
20 19.06 ЮЗ 1 20 км 10/10 1500 м
[]
+21.2 +14.8 67 +24 +24 комфорт 1013.9 966.8
21 19.06 ЮЗ 1
{2}
20 км 10/10 1000 м
[]
+19.9 +15.7 77 +24 +24 комфорт 1014.7 967.3 0
22 19.06 ЮЗ 1 20 км 10/10 1500 м
[]
+19.3 +16.1 82 +23 +23 комфорт 1014.8 967.4
23 19.06 З 1 20 км 10/9 1350 м
[]
+19.0 +16.0 83 +21 +21 комфорт 1015.3 967.8
00 20.06 СЗ 4
{7}
20 км 10/10 600 м
[]
+18.4 +15.6 84 +19 +19 1016.2 968.5 0.0 0
01 20.06 СЗ 2 20 км 10/10 500 м
[]
+17.0 +15.5 91 +17 +17 1016.4 968.5 0.4
02 20.06 СЗ 2 20 км 10/10 480 м
[]
+16.7 +15.1 90 +17 +17 1016.6 968.6
03 20.06 СЗ 4
{6}
19 км 10/10 200 м
[]
+16.0 +14.5 91 +15 +15 1016.9 968.8 0.4 0
04 20.06 СЗ 2 12 км морось 10/10 210 м
[]
+15.0 +14.0 94 +15 +15 1017.4 969.1 0.0
05 20.06 СЗ 1 6000 м слаб. морось 10/10 210 м
[]
+14.4 +13.6 95 +15 +15 1017.4 969.0 0.6
06 20.06 З 2
{3}
10 км 10/10 300 м
[]
+14.6 +13.8 95 +14 +14 1017.8 969.4 +14.4 +23.0 0.8 0
07 20.06 З 1 19 км 10/10 150 м
[]
+14.7 +13.6 93 +15 +15 1017.8 969.4
08 20.06 СЗ 1 5000 м 10/10 360 м
[]
+14.8 +13.7 93 +15 +15 1017.6 969.3 0.0
09 20.06 З 1
{3}
20 км 10/10 200 м
[]
+15.6 +14.0 90 +17 +17 1017.5 969.3 0.2 0
10 20.06 Ю 1 20 км 10/10 270 м
[]
+16.4 +13.7 84 +18 +18 1017.6 969.5
11 20.06 СЗ 1 20 км 10/10 330 м
[]
+17.6 +14.3 81 +19 +19 1017.4 969.5
12 20.06 С 3
{4}
20 км 10/10 300 м
[]
+17.0 +13.9 82 +17 +17 1017.2 969.2 0
13 20.06 С 1 20 км 10/10 420 м
[]
+17.1 +14.0 82 +19 +19 1017.0 969.1
14 20.06 В 1 20 км 10/10 500 м
[]
+17.5 +13.8 79 +19 +19 1016.7 968.8
15 20.06 СЗ 3
{4}
19 км 10/10 300 м
[]
+16.8 +14.6 87 +17 +17 1016.3 968.4 0
16 20.06 СЗ 1 2400 м слаб. морось 10/10 180 м
[]
+15.9 +14.9 94 +17 +17 1016.6 968.5 0.6
17 20.06 СЗ 1 18 км 10/10 150 м
[]
+16.4 +15.1 92 +18 +18 1016.6 968.6 0.2
18 20.06 штиль 0
{3}
20 км 10/10 600 м
[]
+16.8 +14.6 87 +17 +17 1016.3 968.4 +14.5 +18.2 0.8 0
19 20.06 ЮВ 1 20 км 10/10 570 м
[]
+16.5 +14.9 90 +18 +18 1016.8 968.8 0.0
20 20.06 штиль 0 17 км слаб. дождь 10/10 900 м
[]
+16.3 +15.0 92 +16 +16 1017.2 969.1 0.0
21 20.06 штиль 0
{2}
6000 м слаб. дождь 10/10 100 м
[]
+15.9 +14.9 94 +16 +16 1017.3 969.2 2 0
22 20.06 З 1 11 км 10/9 150 м
[]
+15.5 +14.7 95 +17 +17 1017.5 969.3 0.4
23 20.06 штиль 0 2600 м дымка 10/10 60 м
[]
+15.6 +14.8 95 +15 +15 1017.1 968.9 0.0
00 21.06 СЗ 1
{2}
8000 м слаб. дождь 10/10 300 м
[]
+15.6 +15.0 96 +16 +16 1017.1 968.9 0.6 0
01 21.06 В 1 6000 м слаб. дождь 10/10 500 м
[]
+15.6 +14.8 95 +17 +17 1016.9 968.7 1
02 21.06 ЮЗ 1 5000 м слаб. дождь 10/9 500 м
[]
+15.5 +14.9 96 +17 +17 1016.4 968.2 1
03 21.06 З 1
{2}
10 км 10/10 100 м
[]
+15.4 +14.8 96 +17 +17 1016.5 968.3 3 0
04 21.06 З 1 7000 м слаб. морось 10/10 60 м
[]
+15.4 +14.8 96 +17 +17 1016.4 968.2 0.2
05 21.06 ЮВ 1 7000 м 10/9 90 м
[]
+15.5 +14.9 96 +17 +17 1016.6 968.4 0.4
06 21.06 С 1
{2}
8000 м дождь 10/10 50 м
[]
+15.6 +15.0 96 +17 +17 1017.1 968.9 +15.4 +16.9 0.8 0
07 21.06 штиль 0 11 км слаб. дождь 10/3 90 м
[]
+15.6 +14.8 95 +15 +18 1017.4 969.2 0.2
08 21.06 ЮВ 1 19 км 10/1 300 м
[]
+16.5 +15.5 94 +18 +23 1016.7 968.7 0.6
09 21.06 СЗ 3
{6}
12 км слаб. дождь 10/10 200 м
[]
+16.6 +15.6 94 +16 +16 1017.3 969.3 1 0
10 21.06 СЗ 2 20 км 10/10 150 м
[]
+14.7 +13.6 93 +14 +14 1018.4 970.0 0.0
11 21.06 СЗ 3 13 км 10/10 210 м
[]
+15.0 +13.9 93 +14 +14 1018.7 970.3
12 21.06 СЗ 5
{10}
20 км 10/10 200 м
[]
+14.4 +12.6 89 +13 +13 1019.2 970.7 0.0 0
13 21.06 СЗ 2 20 км 10/10 480 м
[]
+14.2 +12.6 90 +14 +14 1019.6 971.0
14 21.06 СЗ 2 7000 м 10/10 300 м
[]
+14.5 +13.0 91 +14 +14 1019.7 971.2
15 21.06 СЗ 3
{8}
20 км 10/10 300 м
[]
+14.2 +12.8 91 +13 +13 1019.9 971.3 0.2 0
16 21.06 СЗ 2 20 км 10/10 600 м
[]
+14.6 +12.6 88 +15 +15 1020.0 971.5
17 21.06 З 1 20 км 10/10 600 м
[]
+14.5 +12.2 86 +15 +15 1020.2 971.7
18 21.06 З 2
{8}
20 км 10/10 1500 м
[]
+14.7 +12.4 86 +15 +15 1020.2 971.7 +13.9 +17.1 0
19 21.06 СЗ 1 20 км 10/10 570 м
[]
+14.6 +12.3 86 +15 +15 1020.7 972.1
20 21.06 штиль 0 20 км 10/9 1170 м
[]
+14.2 +12.6 90 +14 +14 1020.8 972.2
21 21.06 штиль 0
{1}
20 км 10/10 300 м
[]
+14.1 +12.8 92 +14 +14 1021.5 972.8 0
22 21.06 Ю 1 20 км 10/10 1500 м
[]
+13.2 +12.1 93 +13 +13 1021.4 972.6
23 21.06 штиль 0 20 км 10/9 800 м
[]
+12.9 +12.1 95 +12 +12 1021.5 972.6
00 22.06 ЮВ 1
{1}
20 км 10/10 600 м
[]
+13.3 +12.7 96 +14 +14 1021.3 972.5 0
01 22.06 штиль 0 20 км 10/10 1020 м
[]
+13.3 +12.4 94 +13 +13 1020.8 972.0
02 22.06 ЮВ 1 20 км 10/10 960 м
[]
+13.3 +12.4 94 +14 +14 1020.0 971.3
03 22.06 Ю 2
{2}
20 км 10/10 600 м
[]
+12.6 +11.7 94 +12 +12 1019.4 970.6 0
04 22.06 штиль 0 20 км 10/10 800 м
[]
+12.8 +12.0 95 +12 +12 1019.3 970.5
05 22.06 штиль 0 20 км 10/10 870 м
[]
+12.9 +12.0 94 +12 +12 1019.4 970.6
06 22.06 СВ 1
{1}
20 км 10/10 1000 м
[]
+13.6 +12.7 94 +14 +14 1019.3 970.7 +12.5 +14.7 0
07 22.06 Ю 1 20 км 8/8 960 м
[]
+15.9 +13.2 84 +17 +18 1018.6 970.4
08 22.06 Ю 2 20 км н/о +17.5 +11.7 69 +18 +18 1018.2 970.2
09 22.06 ЮВ 2
{6}
20 км н/о +19.5 +12.3 63 +21 +21 комфорт 1017.6 970.0 0
10 22.06 С 1 20 км н/о +20.9 +12.1 57 +25 +25 комфорт 1017.2 969.8
11 22.06 СВ 1 19 км н/о +21.4 +12.3 56 +24 +24 комфорт 1016.9 969.6
12 22.06 С 2
{4}
20 км н/о +22.3 +13.4 57 +25 +25 комфорт 1016.3 969.2 0
13 22.06 В 1 20 км н/о +23.8 +13.1 51 +26 +26 жарко 1015.4 968.6
14 22.06 СВ 1 19 км н/о +23.9 +14.0 54 +26 +26 жарко 1014.7 967.9
15 22.06 В 2
{5}
20 км н/о +24.8 +13.0 48 +27 +27 жарко 1014.0 967.4 0
16 22.06 СВ 1 20 км н/о +25.1 +13.6 49 +27 +27 жарко 1013.5 967.0
17 22.06 С 1 20 км н/о +24.1 +12.4 48 +26 +26 жарко 1013.5 966.8
18 22.06 С 2
{4}
20 км н/о +23.6 +12.6 50 +26 +26 жарко 1013.8 967.0 +13.6 +25.4 0
19 22.06 ЮВ 1 20 км н/о +22.0 +12.0 53 +24 +24 комфорт 1014.1 967.0
20 22.06 Ю 1 20 км н/о +17.5 +12.2 71 +19 +19 1015.1 967.3
21 22.06 ЮВ 3
{5}
20 км н/о +17.8 +13.5 76 +18 +18 1015.2 967.4 0
22 22.06 ЮВ 3 20 км н/о +18.0 +13.3 74 +18 +18 1014.6 966.9
23 22.06 ЮВ 2 20 км н/о +18.3 +12.9 71 +19 +19 1013.9 966.3
00 23.06 Ю 5
{8}
20 км н/о +18.1 +13.0 72 +18 +18 1013.7 966.1 0
01 23.06 ЮВ 2 20 км н/о +17.2 +12.5 74 +18 +18 1013.4 965.6
02 23.06 ЮВ 1 20 км н/о +15.9 +12.1 78 +17 +17 1013.4 965.4
03 23.06 ЮЗ 1
{4}
20 км н/о +13.3 +11.7 90 +14 +14 1013.4 965.0 0
04 23.06 ЮВ 3 20 км н/о +16.6 +10.7 68 +17 +17 1012.5 964.6
05 23.06 ЮВ 2 20 км н/о +16.1 +10.8 71 +16 +16 1012.5 964.6
06 23.06 ЮВ 3
{6}
20 км н/о +17.2 +10.8 66 +17 +17 1012.5 964.7 +13.3 +24.1 0
07 23.06 ЮВ 2 20 км н/о +19.8 +13.0 65 +22 +22 комфорт 1012.3 965.0
08 23.06 В 1 20 км н/о +24.5 +15.1 56 +27 +27 жарко 1011.6 965.1
09 23.06 В 2
{5}
20 км н/о +25.5 +14.9 52 +28 +28 жарко 1011.5 965.1 0
10 23.06 В 1 20 км н/о +28.2 +14.4 43 +30 +30 жарко 1011.1 965.2
11 23.06 ЮВ 1 20 км н/о +30.0 +16.1 43 +33 +33 душно 1010.7 965.1
12 23.06 В 2
{5}
20 км н/о +30.7 +14.3 37 +33 +33 душно 1010.5 964.9 0
13 23.06 В 2 20 км н/о +32.0 +17.1 41 +36 +36 очень
душно
1009.8 964.5
14 23.06 В 2 20 км н/о +31.9 +15.0 36 +34 +34 душно 1009.7 964.4
15 23.06 В 3
{9}
19 км н/о +32.4 +15.8 37 +35 +35 душно 1009.5 964.3 0
16 23.06 В 2 19 км н/о +32.0 +14.2 34 +34 +34 душно 1009.8 964.5
17 23.06 В 1 20 км н/о +31.1 +15.9 40 +34 +34 душно 1010.0 964.6
18 23.06 СЗ 1
{4}
20 км н/о +29.7 +19.4 54 +35 +35 очень
душно
1010.7 965.1 +17.2 +32.5 0
19 23.06 В 1 20 км н/о +26.9 +16.8 54 +31 +31 душно 1011.5 965.4
20 23.06 В 1 20 км н/о +24.7 +16.7 61 +28 +28 душно 1012.1 965.6
21 23.06 В 3
{6}
20 км н/о +23.3 +16.8 67 +28 +28 душно 1012.7 966.0 0
22 23.06 ЮВ 2 20 км н/о +22.4 +16.0 67 +27 +27 душно 1012.9 966.0
23 23.06 ЮВ 2 20 км н/о +21.5 +15.3 68 +25 +25 комфорт 1012.7 965.7
00 24.06 ЮВ 3
{8}
20 км н/о +21.0 +14.4 66 +24 +24 комфорт 1012.6 965.5 0
01 24.06 ЮВ 1 20 км н/о +20.4 +14.3 68 +24 +24 комфорт 1012.3 965.1
02 24.06 ЮВ 1 20 км н/о +20.0 +13.7 67 +23 +23 комфорт 1011.8 964.6
03 24.06 ЮВ 1
{4}
20 км н/о +18.0 +13.9 77 +19 +19 1011.8 964.2 0
05 24.06 Ю 1 15 км н/о +16.2 +14.2 88 +18 +18 1012.2 964.3
06 24.06 С 1
{3}
20 км н/о +17.3 +15.1 87 +19 +19 1012.2 964.5 +16.2 +29.9 0
07 24.06 З 2 20 км н/о +19.7 +16.0 79 +22 +22 комфорт 1012.8 965.5
08 24.06 СЗ 2 20 км н/о +20.7 +16.1 75 +25 +25 комфорт 1013.0 965.9

 

Местоположение метеостанции Сен-Жирон (Франция): широта 43.00 долгота 1.10 высота над уровнем моря 412 м.

В архиве по умолчанию представлена погода в Сен-Жироне за последнюю неделю. Архивные данные за месяц целиком и за предыдущие месяцы, начиная с января 2011 года, Вы можете получить, выбрав интересующий диапазон дат из раскрывающегося списка и нажав кнопку "Ввод!".


*Определитесь, кто Вы:
робот инопланетянин человек

Внимание! Время в таблицах - всемирное. Для получения местного времени необходимо прибавить поправку, которая равна 1 ч.

Смотрите также архив погоды в соседних городах и на ближайших метеорологических станциях:

Погода в Артьесе (Испания) (38 км)
Погода в Мюре-Лерм (Франция) (52 км)
Погода в Тулуза аэропорту (Франция) (63 км)
Погода в Тулузе (Франция) (73 км)
Погода в Сео-де-Уржеле (Испания) (78 км)
Погода в Бьельсе (Испания) (83 км)
Погода в Оше (Франция) (86 км)
Погода в Таларе (Испания) (90 км)
Погода в Тарбе (Франция) (92 км)
Погода в Ла-Молине (Испания) (101 км)

Пояснения к столбцам:

Ветер - указаны скорость ветра в м/с - средняя за 10 мин, порывы в срок и между сроками (в фигурных скобках) и направление, откуда дует ветер: С - северный, СВ - северо-восточный, В - восточный, ЮВ - юго-восточный, Ю - южный, ЮЗ - юго-западный, З - западный, СЗ - северо-западный.
Видимость - горизонтальная дальность видимости в метрах или километрах. При видимости от 1 до 10 км при отсутствии осадков обычно наблюдается дымка, при ухудшении видимости до 1 км и менее - туман. В сухую погоду видимость может ухудшаться дымом, пылью или мглою.
Явления - указаны атмосферные явления, наблюдавшиеся в срок или в последний час перед сроком; фигурными скобками обозначены явления, наблюдавшиеся между сроками (за 1-3 часа до срока); квадратными скобками обозначены град или гололедные отложения с указанием их диаметра в мм.
Облачность - указаны через наклонную черту общая и нижняя облачность в баллах и высота нижней границы облаков в метрах; квадратными скобками обозначены формы облаков: Ci - перистые, Cs - перисто-слоистые, Cc - перисто-кучевые, Ac - высококучевые, As - высокослоистые, Sc - слоисто-кучевые, Ns - слоисто-дождевые, Cu - кучевые, Cb - кучево-дождевые. Подробнее классификацию облаков см. в Атласе облаков (PDF).
T - Температура воздуха - температура, измеренная на высоте 2 м над землей.
Td - Температура точки росы - температура, при понижении до которой содержащийся в воздухе водяной пар достигнет насыщения.
f - Относительная влажность воздуха - влажноcть воздуха, измеренная на высоте 2 м над землей.
Te - Эффективная температура - температура, которую ощущает одетый по сезону человек в тени. Характеристика душности погоды. При расчете учитывается влияние влажности воздуха и скорости ветра на теплоощущения человека.
Tes - Эффективная температура на солнце - температура, которую ощущает человек, с поправкой на солнечный нагрев. Характеристика знойности погоды. Зависит от высоты солнца над горизонтом, облачности и скорости ветра. Ночью, в пасмурную погоду, а также при ветре 12 м/с и более поправка равна нулю.
P - Атмосферное давление - приведенное к уровню моря атмосферное давление.
Po - Атмосферное давление - измеренное на уровне метеостанции атмосферное давление.
Tmin - Минимальная температура - минимум температуры воздуха на высоте 2 м над землей.
Tmax - Максимальная температура - максимум температуры воздуха на высоте 2 м над землей.
R - Количество осадков - Количество выпавших осадков за период времени, мм. При наведении курсора мыши на число - период времени, за который выпало указанное количество осадков.
R24 - Количество осадков - Количество выпавших осадков за 24 часа, мм.
S - Снежный покров - Высота снежного покрова, см. При наведении курсора мыши на число - состояние снежного покрова и степень покрытия местности в баллах.